GW4256 Weather Reports


time (UTC)temp
F
wind
direction
speed
knots
gust
knots
rain 1hr
in
rain 24hr
in
rain mn
in
humidity
%
barometer
mb
20260508063018 37 15 0.0 0.0 0.00 0.00 0.00 89 1016.5
20260508061520 38 20 0.0 0.0 0.00 0.00 0.00 89 1016.4
20260508060008 38 20 0.0 0.0 0.00 0.00 0.00 89 1016.2
20260508054512 38 20 0.0 0.0 0.00 0.00 0.00 89 1016.1
20260508053017 39 20 0.0 0.0 0.00 0.00 0.00 88 1015.9
20260508051521 39 20 0.0 0.0 0.00 0.00 0.00 88 1015.9
20260508050033 40 20 0.0 0.0 0.00 0.00 0.00 87 1015.9
20260508044510 40 31 0.0 0.0 0.00 0.00 0.00 87 1015.9
20260508043016 41 17 0.0 0.0 0.00 0.00 0.00 87 1015.7
20260508041517 41 17 0.0 0.0 0.00 0.00 0.00 86 1015.6
20260508040034 41 17 0.0 0.0 0.00 0.00 0.00 85 1015.4
20260508034524 42 17 0.0 0.0 0.00 0.00 0.00 85 1015.2
20260508033012 42 37 0.0 0.0 0.00 0.00 0.00 84 1015.1
20260508031516 43 37 0.0 0.0 0.00 0.00 0.00 83 1014.9
20260508030021 43 37 0.0 0.0 0.00 0.01 0.00 82 1014.8
20260508024524 44 37 0.0 0.0 0.00 0.02 0.00 81 1014.5
20260508023023 44 37 0.0 0.0 0.00 0.03 0.00 80 1014.3
20260508021514 45 37 0.0 0.0 0.00 0.05 0.00 78 1014.1
20260508020027 46 37 0.0 0.0 0.00 0.05 0.00 76 1014.0
20260508014523 47 15 0.0 0.0 0.00 0.05 0.00 76 1013.8
20260508013027 48 38 0.0 0.0 0.00 0.05 0.00 74 1013.6
20260508011526 48 359 0.0 1.7 0.00 0.05 0.00 74 1013.4
20260508010018 49 359 0.0 2.6 0.00 0.05 0.00 72 1013.2
20260508004519 50 160 0.0 0.0 0.00 0.05 0.00 70 1013.0
20260508003025 51 75 0.0 1.7 0.00 0.06 0.00 68 1012.8
20260508001539 53 359 0.0 2.6 0.00 0.06 0.00 65 1012.6
20260508000016 53 360 0.0 0.0 0.00 0.06 0.00 65 1012.3
20260507234518 55 324 0.9 1.7 0.00 0.06 0.00 59 1012.2
20260507233013 57 204 1.7 3.5 0.00 0.06 0.00 50 1011.9
20260507231507 57 176 0.0 1.7 0.00 0.06 0.00 56 1011.6
20260507230019 58 319 0.0 3.5 0.00 0.06 0.00 51 1011.3
20260507224519 58 314 0.9 9.6 0.00 0.06 0.00 48 1011.3
20260507223021 60 342 2.6 8.7 0.00 0.08 0.00 47 1011.2
20260507221505 60 358 2.6 7.0 0.00 0.08 0.00 44 1011.1
20260507220019 61 223 0.9 6.1 0.00 0.08 0.00 47 1010.8
20260507214512 60 338 0.9 7.0 0.00 0.08 0.00 46 1010.7
20260507213017 61 25 3.5 8.7 0.00 0.08 0.00 45 1010.6
20260507211522 62 305 3.5 7.8 0.00 0.09 0.00 43 1010.2
20260507210008 61 124 2.6 7.0 0.00 0.09 0.00 44 1010.3
20260507204509 61 353 2.6 12.2 0.00 0.09 0.00 43 1010.2
20260507203027 63 246 2.6 9.6 0.00 0.09 0.00 44 1010.2
20260507201522 62 342 3.5 11.3 0.00 0.09 0.00 46 1010.3
20260507200028 63 159 2.6 13.0 0.00 0.09 0.00 47 1010.1
20260507194509 63 34 3.5 11.3 0.00 0.09 0.00 47 1010.4
20260507193028 62 155 3.5 10.4 0.00 0.09 0.00 51 1010.7
20260507191521 65 72 4.3 14.8 0.00 0.09 0.00 47 1010.6
20260507190026 62 22 1.7 10.4 0.00 0.09 0.00 53 1010.8
20260507184524 63 27 0.9 6.1 0.00 0.09 0.00 49 1010.9
20260507183014 65 37 3.5 7.0 0.00 0.09 0.00 50 1010.8
20260507181518 62 58 1.7 7.0 0.00 0.09 0.00 54 1011.0
20260507180005 62 358 0.9 7.0 0.00 0.09 0.00 52 1011.2
20260507174504 61 18 1.7 7.8 0.00 0.09 0.00 52 1011.3
20260507173008 62 91 0.9 5.2 0.00 0.09 0.00 55 1011.3
20260507171517 60 105 0.9 6.1 0.00 0.09 0.00 57 1011.6
20260507170039 59 278 0.9 7.8 0.00 0.09 0.00 60 1011.9
20260507164504 59 207 0.0 2.6 0.00 0.09 0.00 62 1011.9
20260507163008 58 146 0.9 4.3 0.00 0.09 0.00 66 1012.2
20260507161512 56 173 1.7 3.5 0.00 0.09 0.00 67 1012.3
20260507160018 56 169 0.0 1.7 0.00 0.09 0.00 65 1012.6
20260507154523 56 64 0.0 1.7 0.00 0.09 0.00 68 1012.8
20260507153009 55 358 0.9 4.3 0.00 0.09 0.00 69 1013.0
20260507151511 55 20 0.9 4.3 0.00 0.09 0.00 70 1012.9
20260507150031 54 353 0.9 6.1 0.00 0.09 0.00 72 1013.0
20260507144520 54 360 1.7 4.3 0.00 0.09 0.00 75 1013.1
20260507143028 54 314 1.7 4.3 0.00 0.09 0.00 75 1013.0
20260507141508 53 356 1.7 4.3 0.00 0.09 0.00 77 1013.1
20260507140018 53 44 0.9 2.6 0.00 0.10 0.00 81 1013.5
20260507134520 52 351 0.0 1.7 0.00 0.10 0.00 83 1013.7
20260507133024 52 58 0.9 3.5 0.00 0.10 0.00 83 1013.6
20260507131533 53 1 0.9 4.3 0.00 0.11 0.00 83 1013.6
20260507130014 53 62 0.9 4.3 0.00 0.15 0.00 84 1013.6
20260507124517 53 1 0.9 4.3 0.00 0.17 0.00 85 1013.6
20260507123020 53 1 0.0 2.6 0.00 0.18 0.00 84 1013.5
20260507121526 54 360 0.9 1.7 0.00 0.18 0.00 87 1013.3
20260507120037 53 157 0.0 1.7 0.00 0.18 0.00 92 1013.2
20260507114515 53 296 0.0 0.0 0.00 0.18 0.00 94 1013.4
20260507113019 53 118 0.0 0.0 0.00 0.21 0.00 94 1013.0
20260507111524 53 101 0.0 0.0 0.00 0.21 0.00 94 1012.9
20260507110024 52 101 0.0 0.0 0.00 0.24 0.00 94 1012.9
20260507104526 52 101 0.0 0.0 0.00 0.28 0.00 94 1012.7
20260507103019 52 101 0.0 0.0 0.00 0.28 0.00 94 1012.5
20260507101524 52 137 0.0 0.0 0.00 0.28 0.00 94 1012.3
20260507100033 52 203 0.0 0.0 0.00 0.28 0.00 94 1012.1
20260507094524 52 352 0.0 1.7 0.00 0.28 0.00 94 1012.3
20260507093026 52 45 0.0 0.9 0.00 0.28 0.00 94 1012.3
20260507091520 53 45 0.0 1.7 0.00 0.28 0.00 93 1012.2
20260507090008 53 25 0.0 1.7 0.00 0.28 0.00 93 1012.7
20260507084511 53 353 0.0 1.7 0.00 0.28 0.00 93 1012.4
20260507083013 53 12 0.0 1.7 0.00 0.28 0.00 93 1012.8
20260507081534 53 1 0.0 1.7 0.00 0.28 0.00 93 1012.6
20260507080022 53 6 0.9 2.6 0.00 0.28 0.00 93 1012.2
20260507074513 53 360 0.0 1.7 0.00 0.28 0.00 93 1012.3
20260507073010 53 360 0.9 2.6 0.00 0.28 0.00 93 1012.1
20260507071517 54 343 0.0 0.0 0.00 0.28 0.00 94 1012.2
20260507070021 54 314 0.0 0.0 0.00 0.28 0.00 94 1012.3
20260507064524 54 314 0.0 0.0 0.00 0.28 0.00 94 1012.8